Time,TemperatureF,DewpointF,PressureIn,WindDirection,WindDirectionDegrees,WindSpeedMPH,WindSpeedGustMPH,Humidity,HourlyPrecipIn,Conditions,Clouds,dailyrainin,SoftwareType,DateUTC
2017-10-23 00:07:00,44.1,36.0,30.43,WSW,258,9.0,10.0,73,0.00,,,0.00,weatherlink.com 1.10,2017-10-23 06:07:00,
2017-10-23 00:22:00,44.1,36.0,30.42,WSW,239,10.0,11.0,73,0.00,,,0.00,weatherlink.com 1.10,2017-10-23 06:22:00,
2017-10-23 00:37:00,44.1,36.0,30.44,WSW,245,7.0,11.0,73,0.00,,,0.00,weatherlink.com 1.10,2017-10-23 06:37:00,
2017-10-23 00:52:00,43.5,35.0,30.46,WSW,250,2.0,8.0,73,0.00,,,0.00,weatherlink.com 1.10,2017-10-23 06:52:00,
2017-10-23 01:07:00,41.9,35.0,30.48,NNW,337,3.0,6.0,77,0.00,,,0.00,weatherlink.com 1.10,2017-10-23 07:07:00,
2017-10-23 01:22:00,41.9,35.0,30.48,North,355,1.0,8.0,77,0.00,,,0.00,weatherlink.com 1.10,2017-10-23 07:22:00,
2017-10-23 01:37:00,41.8,36.0,30.48,North,355,4.0,8.0,79,0.00,,,0.00,weatherlink.com 1.10,2017-10-23 07:37:00,
2017-10-23 01:52:00,42.0,35.0,30.49,North,355,3.0,6.0,77,0.00,,,0.00,weatherlink.com 1.10,2017-10-23 07:52:00,
2017-10-23 02:07:00,41.5,35.0,30.49,North,5,3.0,9.0,79,0.00,,,0.00,weatherlink.com 1.10,2017-10-23 08:07:00,
2017-10-23 02:22:00,41.0,35.0,30.50,North,5,3.0,5.0,80,0.00,,,0.00,weatherlink.com 1.10,2017-10-23 08:22:00,
2017-10-23 02:37:00,40.6,35.0,30.50,North,5,5.0,6.0,81,0.00,,,0.00,weatherlink.com 1.10,2017-10-23 08:37:00,
2017-10-23 02:52:00,40.3,35.0,30.52,NNE,23,3.0,10.0,81,0.00,,,0.00,weatherlink.com 1.10,2017-10-23 08:52:00,
2017-10-23 03:07:00,39.8,34.0,30.52,NNE,24,5.0,6.0,81,0.00,,,0.00,weatherlink.com 1.10,2017-10-23 09:07:00,
2017-10-23 03:22:00,39.2,33.0,30.53,NNE,27,5.0,10.0,77,0.00,,,0.00,weatherlink.com 1.10,2017-10-23 09:22:00,
2017-10-23 03:37:00,38.9,30.0,30.53,NNE,26,1.0,6.0,70,0.00,,,0.00,weatherlink.com 1.10,2017-10-23 09:37:00,
2017-10-23 03:52:00,37.9,29.0,30.53,NNE,26,0.0,3.0,70,0.00,,,0.00,weatherlink.com 1.10,2017-10-23 09:52:00,
2017-10-23 04:07:00,35.7,29.0,30.54,NNE,26,0.0,1.0,76,0.00,,,0.00,weatherlink.com 1.10,2017-10-23 10:07:00,
2017-10-23 04:23:00,34.0,28.0,30.55,NNE,26,2.0,3.0,79,0.00,,,0.00,weatherlink.com 1.10,2017-10-23 10:23:00,
2017-10-23 04:37:00,34.1,30.0,30.55,SSE,158,0.0,2.0,85,0.00,,,0.00,weatherlink.com 1.10,2017-10-23 10:37:00,
2017-10-23 04:52:00,33.2,29.0,30.56,NNE,26,0.0,0.0,83,0.00,,,0.00,weatherlink.com 1.10,2017-10-23 10:52:00,
2017-10-23 05:08:00,32.7,28.0,30.57,NNE,26,0.0,3.0,82,0.00,,,0.00,weatherlink.com 1.10,2017-10-23 11:08:00,
2017-10-23 05:23:00,31.6,27.0,30.58,NNE,26,0.0,3.0,82,0.00,,,0.00,weatherlink.com 1.10,2017-10-23 11:23:00,
2017-10-23 05:38:00,30.5,25.0,30.59,NNE,26,2.0,3.0,81,0.00,,,0.00,weatherlink.com 1.10,2017-10-23 11:38:00,
2017-10-23 05:53:00,28.9,24.0,30.59,NNE,26,1.0,3.0,82,0.00,,,0.00,weatherlink.com 1.10,2017-10-23 11:53:00,
2017-10-23 06:08:00,28.5,24.0,30.59,NNE,26,2.0,3.0,82,0.00,,,0.00,weatherlink.com 1.10,2017-10-23 12:08:00,
2017-10-23 06:23:00,28.1,24.0,30.60,NNE,26,0.0,2.0,83,0.00,,,0.00,weatherlink.com 1.10,2017-10-23 12:23:00,
2017-10-23 06:38:00,28.1,24.0,30.61,NNE,26,0.0,2.0,83,0.00,,,0.00,weatherlink.com 1.10,2017-10-23 12:38:00,
2017-10-23 06:53:00,27.4,23.0,30.61,NNE,26,0.0,3.0,82,0.00,,,0.00,weatherlink.com 1.10,2017-10-23 12:53:00,
2017-10-23 07:08:00,26.6,22.0,30.61,NNE,26,1.0,3.0,83,0.00,,,0.00,weatherlink.com 1.10,2017-10-23 13:08:00,
2017-10-23 07:23:00,26.3,22.0,30.61,NNE,26,2.0,2.0,84,0.00,,,0.00,weatherlink.com 1.10,2017-10-23 13:23:00,
2017-10-23 07:38:00,26.2,22.0,30.62,NNE,26,2.0,2.0,84,0.00,,,0.00,weatherlink.com 1.10,2017-10-23 13:38:00,
2017-10-23 07:53:00,26.6,22.0,30.62,NNE,26,2.0,3.0,84,0.00,,,0.00,weatherlink.com 1.10,2017-10-23 13:53:00,
2017-10-23 08:08:00,26.7,22.0,30.63,NNE,26,0.0,2.0,83,0.00,,,0.00,weatherlink.com 1.10,2017-10-23 14:08:00,
2017-10-23 08:23:00,26.9,23.0,30.64,NNE,26,0.0,0.0,84,0.00,,,0.00,weatherlink.com 1.10,2017-10-23 14:23:00,
2017-10-23 08:38:00,28.2,24.0,30.65,NNE,26,2.0,5.0,85,0.00,,,0.00,weatherlink.com 1.10,2017-10-23 14:38:00,
2017-10-23 08:53:00,29.6,25.0,30.65,NNE,25,2.0,3.0,83,0.00,,,0.00,weatherlink.com 1.10,2017-10-23 14:53:00,
2017-10-23 09:08:00,30.1,26.0,30.67,NNE,25,0.0,3.0,84,0.00,,,0.00,weatherlink.com 1.10,2017-10-23 15:08:00,
2017-10-23 09:23:00,33.2,28.0,30.68,NNE,25,0.0,1.0,80,0.00,,,0.00,weatherlink.com 1.10,2017-10-23 15:23:00,
2017-10-23 09:38:00,34.4,28.0,30.67,NNE,25,0.0,0.0,78,0.00,,,0.00,weatherlink.com 1.10,2017-10-23 15:38:00,
2017-10-23 09:53:00,37.0,28.0,30.68,NNE,25,0.0,1.0,71,0.00,,,0.00,weatherlink.com 1.10,2017-10-23 15:53:00,
2017-10-23 10:08:00,38.5,29.0,30.69,NNE,25,0.0,1.0,68,0.00,,,0.00,weatherlink.com 1.10,2017-10-23 16:08:00,
2017-10-23 10:23:00,40.0,29.0,30.69,NNE,25,0.0,2.0,65,0.00,,,0.00,weatherlink.com 1.10,2017-10-23 16:23:00,
2017-10-23 10:38:00,41.1,29.0,30.70,NNE,25,4.0,5.0,63,0.00,,,0.00,weatherlink.com 1.10,2017-10-23 16:38:00,
2017-10-23 10:53:00,42.2,28.0,30.70,NNE,20,4.0,8.0,57,0.00,,,0.00,weatherlink.com 1.10,2017-10-23 16:53:00,
2017-10-23 11:09:00,43.0,28.0,30.70,NNE,18,2.0,9.0,55,0.00,,,0.00,weatherlink.com 1.10,2017-10-23 17:09:00,
2017-10-23 11:23:00,43.7,27.0,30.70,NE,40,4.0,10.0,52,0.00,,,0.00,weatherlink.com 1.10,2017-10-23 17:23:00,
2017-10-23 11:38:00,44.0,27.0,30.70,North,360,1.0,9.0,51,0.00,,,0.00,weatherlink.com 1.10,2017-10-23 17:38:00,
2017-10-23 11:54:00,44.7,27.0,30.71,NNE,33,4.0,9.0,50,0.00,,,0.00,weatherlink.com 1.10,2017-10-23 17:54:00,
2017-10-23 12:08:00,44.9,27.0,30.71,NNE,21,4.0,8.0,50,0.00,,,0.00,weatherlink.com 1.10,2017-10-23 18:08:00,
2017-10-23 12:24:00,45.2,27.0,30.71,North,360,4.0,9.0,50,0.00,,,0.00,weatherlink.com 1.10,2017-10-23 18:24:00,
2017-10-23 12:39:00,45.5,27.0,30.70,North,360,0.0,5.0,49,0.00,,,0.00,weatherlink.com 1.10,2017-10-23 18:39:00,
2017-10-23 12:54:00,46.4,27.0,30.70,NNE,23,2.0,9.0,48,0.00,,,0.00,weatherlink.com 1.10,2017-10-23 18:54:00,
2017-10-23 13:09:00,46.8,29.0,30.70,NNW,340,0.0,6.0,50,0.00,,,0.00,weatherlink.com 1.10,2017-10-23 19:09:00,
2017-10-23 13:24:00,47.6,29.0,30.69,NE,55,3.0,11.0,49,0.00,,,0.00,weatherlink.com 1.10,2017-10-23 19:24:00,
2017-10-23 13:39:00,47.0,29.0,30.69,NE,45,6.0,9.0,49,0.00,,,0.00,weatherlink.com 1.10,2017-10-23 19:39:00,
2017-10-23 13:54:00,47.3,30.0,30.70,ENE,57,4.0,12.0,51,0.00,,,0.00,weatherlink.com 1.10,2017-10-23 19:54:00,
2017-10-23 14:09:00,48.1,30.0,30.70,NNE,26,6.0,10.0,49,0.00,,,0.00,weatherlink.com 1.10,2017-10-23 20:09:00,
2017-10-23 14:24:00,48.7,30.0,30.70,NE,43,2.0,11.0,48,0.00,,,0.00,weatherlink.com 1.10,2017-10-23 20:24:00,
2017-10-23 14:39:00,48.5,29.0,30.70,NNE,19,7.0,12.0,48,0.00,,,0.00,weatherlink.com 1.10,2017-10-23 20:39:00,
2017-10-23 14:54:00,48.7,30.0,30.70,NNE,19,3.0,11.0,48,0.00,,,0.00,weatherlink.com 1.10,2017-10-23 20:54:00,
2017-10-23 15:09:00,49.1,30.0,30.70,ENE,59,9.0,12.0,48,0.00,,,0.00,weatherlink.com 1.10,2017-10-23 21:09:00,
2017-10-23 15:24:00,49.1,29.0,30.70,NE,37,11.0,13.0,46,0.00,,,0.00,weatherlink.com 1.10,2017-10-23 21:24:00,
2017-10-23 15:39:00,48.7,28.0,30.70,NNE,29,12.0,14.0,45,0.00,,,0.00,weatherlink.com 1.10,2017-10-23 21:39:00,
2017-10-23 15:54:00,49.0,28.0,30.70,NNE,17,9.0,14.0,45,0.00,,,0.00,weatherlink.com 1.10,2017-10-23 21:54:00,